Location: Camps Bay
(33.9517°S, 18.3844°E)
Time: 19:55:46
(UTC+00:00)

COSMOS 2487 - Pass Details

Date: 18 January 2020
Orbit: 442 x 447 km, 74.7° (Epoch: 16 February)

Event Time Altitude Azimuth Distance (km) Brightness Sun altitude
Rises 03:09:41 0° 356° (N) 2,434 5.8 -8.7°
Reaches altitude 10° 03:11:46 10° 1° (N) 1,571 4.9 -8.4°
Maximum altitude 03:15:08 50° 77° (ENE) 584 3.3 -7.8°
Drops below altitude 10° 03:18:32 10° 153° (SSE) 1,594 6.2 -7.2°
Sets 03:20:40 0° 158° (SSE) 2,473 7.1 -6.8°
